Stations météo

réclame
Mon MeteoGroup
Sevilla/San Pablo, Espagne (8391): Température de l'air & dewpoint: 17.10.2017 17:00:00 - 23.10.2017 17:00:00 (CEST)Sevilla/San Pablo, Espagne (8391): Vitesse du vent: 17.10.2017 17:00:00 - 23.10.2017 17:00:00 (CEST)Sevilla/San Pablo, Espagne (8391): Direction du vent: 17.10.2017 17:00:00 - 23.10.2017 17:00:00 (CEST)Sevilla/San Pablo, Espagne (8391): reduced air pressure: 17.10.2017 17:00:00 - 23.10.2017 17:00:00 (CEST)Sevilla/San Pablo, Espagne (8391): visibility: 17.10.2017 17:00:00 - 23.10.2017 17:00:00 (CEST)
Date & Time tt [°C] td [°C] ff [km/h] ff [knt] dd ppp [hPa] vv [km]
23.10.2017 17:00:00 28,3 13,3 18 10 ENE 1020,7 30
23.10.2017 16:00:00 27,9 13,4 22 12 ENE 1021,2 -
23.10.2017 15:00:00 27,2 14,2 22 12 ENE 1022,0 -
23.10.2017 14:00:00 26,7 15,0 21 11 ENE 1022,8 30
23.10.2017 13:00:00 24,3 14,7 18 10 ENE 1023,4 -
23.10.2017 12:00:00 22,7 14,4 18 10 ENE 1023,7 -
23.10.2017 11:00:00 20,5 13,3 21 11 ENE 1023,8 30
23.10.2017 10:00:00 18,3 13,2 15 8 NE 1023,3 -
23.10.2017 09:00:00 15,7 12,6 9 5 NNE 1022,9 -
23.10.2017 08:00:00 15,5 13,0 8 4 N 1022,7 30
23.10.2017 07:00:00 15,2 13,0 9 5 NNE 1022,4 -
23.10.2017 06:00:00 16,1 13,2 4 2 NE 1022,3 -
23.10.2017 05:00:00 16,5 13,2 5 3 NNE 1022,4 30
23.10.2017 04:00:00 16,6 13,7 5 3 N 1022,4 -
23.10.2017 03:00:00 17,1 13,0 4 2 ENE 1022,7 -
23.10.2017 02:00:00 18,0 13,4 0 0 N 1022,8 30
23.10.2017 01:00:00 18,7 13,5 2 1 NNE 1023,0 -
23.10.2017 00:00:00 19,5 13,4 5 3 NNE 1022,9 -
22.10.2017 23:00:00 19,6 13,8 0 0 N 1022,5 30
22.10.2017 22:00:00 19,6 13,8 8 4 SE 1022,4 -
22.10.2017 21:00:00 22,8 13,0 4 2 NNE 1021,9 -
22.10.2017 20:00:00 24,5 11,7 5 3 N 1021,7 30
22.10.2017 19:00:00 26,9 11,0 2 1 E 1021,5 -
22.10.2017 18:00:00 27,5 11,0 5 3 ENE 1021,5 -
22.10.2017 17:00:00 28,2 11,3 2 1 S 1021,7 30
22.10.2017 16:00:00 27,2 11,6 4 2 NNW 1022,2 -
22.10.2017 15:00:00 26,8 11,9 9 5 NE 1022,7 -
22.10.2017 14:00:00 25,8 12,7 13 7 ENE 1023,5 30
22.10.2017 13:00:00 24,5 13,1 11 6 ENE 1024,1 -
22.10.2017 12:00:00 22,4 9,9 9 5 NNE 1024,6 -
22.10.2017 11:00:00 20,7 9,0 16 9 NNE 1024,9 30
22.10.2017 10:00:00 17,7 10,3 4 2 NE 1024,3 -
22.10.2017 09:00:00 15,6 10,6 5 3 NE 1023,9 -
22.10.2017 08:00:00 15,6 10,1 5 3 NNE 1023,7 25
22.10.2017 07:00:00 16,5 10,5 8 4 NE 1023,4 -
22.10.2017 06:00:00 16,8 11,1 4 2 NE 1023,1 -
22.10.2017 05:00:00 18,1 11,6 11 6 NNE 1023,2 30
22.10.2017 04:00:00 18,4 12,6 11 6 NNE 1023,6 -
22.10.2017 03:00:00 18,7 14,0 4 2 NE 1023,7 -
22.10.2017 02:00:00 19,5 15,1 8 4 NNE 1023,8 30
22.10.2017 01:00:00 20,8 15,8 0 0 N 1023,5 -
22.10.2017 00:00:00 21,6 15,4 4 2 N 1023,3 -
21.10.2017 23:00:00 22,3 15,6 8 4 NNE 1022,8 30
21.10.2017 22:00:00 23,7 15,2 13 7 NNE 1022,7 -
21.10.2017 21:00:00 25,2 15,9 11 6 N 1022,3 -
21.10.2017 20:00:00 26,1 16,1 0 0 N 1021,4 30
21.10.2017 19:00:00 26,7 15,4 4 2 NNW 1021,2 -
21.10.2017 18:00:00 27,8 14,8 5 3 NNW 1021,1 -
21.10.2017 17:00:00 28,2 15,1 4 2 N 1021,5 30
21.10.2017 16:00:00 27,1 15,5 4 2 ENE 1022,0 -
21.10.2017 15:00:00 27,3 16,6 8 4 E 1022,7 -
21.10.2017 14:00:00 26,7 16,7 9 5 E 1023,7 30
21.10.2017 13:00:00 25,3 17,1 13 7 NE 1024,6 -
21.10.2017 12:00:00 24,3 17,4 4 2 ENE 1024,4 -
21.10.2017 11:00:00 22,2 17,7 8 4 NNE 1024,2 8
21.10.2017 10:00:00 20,6 18,3 4 2 E 1023,8 -
21.10.2017 09:00:00 19,3 18,3 4 2 NE 1023,5 -
21.10.2017 08:00:00 19,1 18,3 8 4 ENE 1023,0 7
21.10.2017 07:00:00 18,6 17,9 4 2 ENE 1022,7 -
21.10.2017 06:00:00 17,9 16,9 2 1 ESE 1022,3 -
21.10.2017 05:00:00 18,1 17,1 4 2 ESE 1022,0 7
21.10.2017 04:00:00 18,4 17,2 0 0 N 1022,1 -
21.10.2017 03:00:00 19,0 17,7 5 3 SE 1022,3 -
21.10.2017 02:00:00 20,0 17,8 4 2 SE 1022,3 20
21.10.2017 01:00:00 20,5 18,1 5 3 S 1022,3 -
21.10.2017 00:00:00 20,9 18,1 5 3 S 1022,3 -
20.10.2017 23:00:00 22,4 18,0 5 3 SW 1022,0 30
20.10.2017 22:00:00 23,4 17,6 9 5 SW 1021,9 -
20.10.2017 21:00:00 24,3 16,6 11 6 SSW 1021,4 -
20.10.2017 20:00:00 25,4 15,4 2 1 S 1020,9 30
20.10.2017 19:00:00 26,7 14,9 0 0 N 1020,4 -
20.10.2017 18:00:00 27,1 15,0 4 2 W 1020,3 -
20.10.2017 17:00:00 26,8 15,2 4 2 S 1020,5 30
20.10.2017 16:00:00 26,2 15,5 8 4 WNW 1020,8 -
20.10.2017 15:00:00 24,8 15,1 8 4 N 1021,2 -
20.10.2017 14:00:00 24,3 14,5 0 0 N 1021,7 30
20.10.2017 13:00:00 23,2 16,1 0 0 N 1022,2 -
20.10.2017 12:00:00 21,5 16,9 2 1 N 1022,1 -
20.10.2017 11:00:00 20,3 16,9 4 2 NW 1021,7 25
20.10.2017 10:00:00 18,8 16,5 4 2 S 1020,9 -
20.10.2017 09:00:00 18,0 16,4 5 3 SSE 1020,2 -
20.10.2017 08:00:00 18,1 16,1 0 0 N 1019,7 30
20.10.2017 07:00:00 17,9 16,2 2 1 ENE 1019,4 -
20.10.2017 06:00:00 18,0 16,2 0 0 N 1019,2 -
20.10.2017 05:00:00 17,7 16,0 0 0 N 1019,0 30
20.10.2017 04:00:00 17,3 15,6 2 1 SE 1019,4 -
20.10.2017 03:00:00 16,5 14,9 4 2 SSE 1019,5 -
20.10.2017 02:00:00 17,7 14,9 0 0 N 1019,3 30
20.10.2017 01:00:00 18,1 14,8 0 0 N 1019,0 -
20.10.2017 00:00:00 18,7 15,0 8 4 W 1018,7 -
19.10.2017 23:00:00 19,5 14,9 13 7 W 1018,2 30
19.10.2017 22:00:00 20,0 14,6 13 7 W 1017,4 -
19.10.2017 21:00:00 20,7 15,0 13 7 W 1016,9 -
19.10.2017 20:00:00 22,1 14,2 15 8 W 1016,0 30
19.10.2017 19:00:00 22,8 13,9 15 8 W 1015,1 -
19.10.2017 18:00:00 22,7 14,4 16 9 W 1014,7 -
19.10.2017 17:00:00 24,0 14,3 13 7 WSW 1014,5 30
19.10.2017 16:00:00 23,0 13,9 15 8 W 1014,6 -
19.10.2017 15:00:00 22,2 13,7 8 4 W 1014,7 -
19.10.2017 14:00:00 20,9 14,0 9 5 WNW 1015,6 30
19.10.2017 13:00:00 20,2 14,8 4 2 NNW 1015,3 -
19.10.2017 12:00:00 19,3 15,0 5 3 NNW 1014,7 -
19.10.2017 11:00:00 18,3 15,5 4 2 WNW 1014,5 25
19.10.2017 10:00:00 17,7 16,0 4 2 W 1013,7 -
19.10.2017 09:00:00 16,9 15,8 4 2 W 1013,2 -
19.10.2017 08:00:00 16,8 15,8 4 2 NW 1012,6 20
19.10.2017 07:00:00 16,8 15,7 2 1 WSW 1011,9 -
19.10.2017 06:00:00 16,6 15,6 0 0 N 1011,5 -
19.10.2017 05:00:00 16,6 15,6 4 2 S 1011,1 20
19.10.2017 04:00:00 16,8 15,7 5 3 SSW 1011,6 -
19.10.2017 03:00:00 17,6 16,1 4 2 SSW 1012,2 -
19.10.2017 02:00:00 18,0 16,8 11 6 WSW 1013,3 20
19.10.2017 01:00:00 18,1 16,6 9 5 SW 1014,1 -
19.10.2017 00:00:00 18,5 17,3 9 5 SSW 1013,7 -
18.10.2017 23:00:00 18,6 17,3 11 6 SW 1014,3 30
18.10.2017 22:00:00 19,1 16,7 13 7 SW 1014,0 -
18.10.2017 21:00:00 19,6 16,2 18 10 SW 1013,5 -
18.10.2017 20:00:00 19,9 16,1 18 10 SW 1012,9 30
18.10.2017 19:00:00 20,7 14,8 16 9 SW 1013,0 -
18.10.2017 18:00:00 21,1 14,6 21 11 SW 1013,0 -
18.10.2017 17:00:00 22,0 14,4 16 9 WSW 1012,7 30
18.10.2017 16:00:00 21,2 14,5 18 10 WSW 1013,4 -
18.10.2017 15:00:00 20,9 13,9 15 8 WSW 1014,2 -
18.10.2017 14:00:00 20,3 14,8 5 3 W 1014,7 30
18.10.2017 13:00:00 19,7 15,5 9 5 WNW 1015,2 -
18.10.2017 12:00:00 - - - - - - -
18.10.2017 11:00:00 18,1 16,4 11 6 WSW 1015,4 25
18.10.2017 10:00:00 17,4 16,4 9 5 SW 1015,2 -
18.10.2017 09:00:00 17,0 16,0 5 3 SSW 1014,5 -
18.10.2017 08:00:00 16,6 16,0 9 5 W 1014,8 7
18.10.2017 07:00:00 17,1 15,3 16 9 W 1014,5 -
18.10.2017 06:00:00 19,0 17,5 4 2 SSW 1014,5 -
18.10.2017 05:00:00 18,8 16,9 4 2 S 1014,6 30
18.10.2017 04:00:00 18,9 16,9 5 3 S 1015,5 -
18.10.2017 03:00:00 19,8 18,1 8 4 S 1016,0 -
18.10.2017 02:00:00 20,7 16,9 13 7 SW 1016,5 10
18.10.2017 01:00:00 21,0 17,0 8 4 SW 1017,1 -
18.10.2017 00:00:00 21,2 16,8 9 5 W 1017,4 -
17.10.2017 23:00:00 21,4 17,2 13 7 WSW 1017,5 9
17.10.2017 22:00:00 21,7 17,7 16 9 SW 1017,7 -
17.10.2017 21:00:00 22,4 17,5 15 8 SW 1017,6 -
17.10.2017 20:00:00 21,5 18,7 8 4 NNW 1017,5 20
17.10.2017 19:00:00 22,2 18,4 4 2 NNE 1017,5 -
17.10.2017 18:00:00 21,8 18,2 4 2 NNE 1018,0 -
17.10.2017 17:00:00 21,9 17,8 11 6 NNE 1018,4 20

tt = Température de l'air
td = dewpoint
ff = Vitesse du vent
dd = Direction du vent
ppp = reduced air pressure
vv = visibility

stations d'obs. à proximité